Vorticity
nan nan nan nan nan nan nan nan nan nan nan nan nan nan nan nan nan nan nan nan nan nan
nan 13 8 10 8 8 9 10 12 12 11 10 9 9 7 8 9 8 8 10 8 nan
nan 27 30 22 14 8 9 10 12 11 11 11 10 10 8 6 8 7 6 10 9 nan
nan 11 15 17 23 26 20 15 11 10 10 9 11 12 11 10 11 9 7 8 9 nan
nan 9 9 6 8 14 20 23 19 17 15 12 12 14 10 12 11 11 10 9 9 nan
nan 9 9 8 10 7 9 14 20 16 13 17 11 6 8 9 7 12 10 11 9 nan
nan 10 10 8 9 9 9 9 10 16 19 13 6 5 10 8 5 1 10 11 10 nan
nan 9 8 9 9 11 9 9 8 10 14 19 20 12 13 13 9 10 11 9 12 nan
nan 8 9 9 9 10 8 9 9 9 8 11 14 15 15 15 14 17 14 12 12 nan
nan 7 7 7 9 8 10 10 9 9 8 9 7 6 14 12 13 12 10 10 9 nan
nan 12 8 6 9 10 9 8 9 10 9 9 7 8 11 13 13 10 8 11 10 nan
nan 9 11 11 9 8 8 8 11 9 7 8 9 10 9 11 14 11 13 11 9 nan
nan 10 9 11 12 14 11 7 7 8 11 9 9 7 9 11 13 12 12 10 14 nan
nan nan nan nan nan nan nan nan nan nan nan nan nan nan nan nan nan nan nan nan nan nan
CAPE
430 277 203 257 255 258 236 245 190 213 182 221 228 296 295 201 237 268 341 339 403 285
829 689 468 408 439 429 496 395 415 180 85 209 192 285 223 248 290 312 435 414 505 409
0 85 838 721 641 556 683 862 601 544 388 324 399 352 305 340 321 396 402 356 263 284
0 0 0 2 202 660 644 922 916 691 643 488 299 410 454 420 421 374 435 440 462 535
0 0 0 0 0 0 32 342 498 454 334 438 320 307 309 304 337 595 432 415 403 417
0 0 0 0 0 0 0 0 77 74 109 192 287 132 130 282 328 347 471 422 647 771
0 0 0 0 0 0 0 0 0 1 178 39 10 4 22 66 141 185 272 427 648 747
0 0 0 0 0 0 0 0 0 0 0 17 148 42 15 0 25 97 27 472 580 625
0 0 0 0 0 0 0 0 0 0 0 0 0 0 1 1 172 225 429 744 671 756
0 0 0 0 0 0 0 0 0 0 0 0 0 0 0 1 2 70 35 79 193 330
1 2 1 0 0 0 0 0 0 0 0 0 0 0 0 0 2 1 2 1 1 6
1 0 2 3 6 3 0 0 0 0 0 0 0 0 0 0 0 2 0 0 2 1
1 1 2 2 10 15 17 4 3 0 0 0 0 0 0 0 4 3 1 1 0 0
1 2 3 6 15 13 16 14 19 6 7 0 0 0 0 0 0 3 0 0 0 0